[keps] orb09148.amsat
Ray Hoad
r.hoad at att.net
Thu May 28 19:56:42 PDT 2009
SB KEPS @ AMSAT $ORB09148.O
Orbital Elements 09148.OSCAR
HR AMSAT ORBITAL ELEMENTS FOR OSCAR SATELLITES
FROM WA5QGD FORT WORTH,TX May 28, 2009
Send Subscribe/unsubscribe to KEPS at
http://www.amsat.org/mailman/listinfo/keps
BID: ORB09148.O
TO ALL RADIO AMATEURS BT
Satellite: AO-07
Catalog number: 07530
Epoch time: 09148.53617437
Element set: 489
Inclination: 101.4283 deg
RA of node: 173.9340 deg
Eccentricity: 0.0011645
Arg of perigee: 307.9840 deg
Mean anomaly: 052.0181 deg
Mean motion: 12.53575783 rev/day
Decay rate: -2.7e-07 rev/day^2
Epoch rev: 58025
Checksum: 299
Satellite: FO-29
Catalog number: 24278
Epoch time: 09148.77582746
Element set: 52
Inclination: 098.5567 deg
RA of node: 025.4201 deg
Eccentricity: 0.0351199
Arg of perigee: 040.7903 deg
Mean anomaly: 321.8972 deg
Mean motion: 13.52943919 rev/day
Decay rate: -6.9e-07 rev/day^2
Epoch rev: 63112
Checksum: 332
Satellite: SO-33
Catalog number: 25509
Epoch time: 09147.43646910
Element set: 0463
Inclination: 031.4292 deg
RA of node: 169.8365 deg
Eccentricity: 0.0354444
Arg of perigee: 157.1774 deg
Mean anomaly: 204.5057 deg
Mean motion: 14.28252896 rev/day
Decay rate: 2.23e-06 rev/day^2
Epoch rev: 55286
Checksum: 322
Satellite: RS-22
Catalog number: 27939
Epoch time: 09147.82169533
Element set: 0801
Inclination: 097.9483 deg
RA of node: 023.4312 deg
Eccentricity: 0.0013122
Arg of perigee: 192.6820 deg
Mean anomaly: 167.4068 deg
Mean motion: 14.63318634 rev/day
Decay rate: 8.8e-07 rev/day^2
Epoch rev: 30259
Checksum: 310
Satellite: VO-52
Catalog number: 28650
Epoch time: 09148.59901282
Element set: 234
Inclination: 097.7438 deg
RA of node: 210.8267 deg
Eccentricity: 0.0028469
Arg of perigee: 093.9376 deg
Mean anomaly: 266.5117 deg
Mean motion: 14.81587587 rev/day
Decay rate: 1.10e-06 rev/day^2
Epoch rev: 21974
Checksum: 342
/EX
SB KEPS @ AMSAT $ORB09148.D
Orbital Elements 09148.MICROS
HR AMSAT ORBITAL ELEMENTS FOR THE MICROSATS
FROM WA5QGD FORT WORTH,TX May 28, 2009
Send Subscribe/unsubscribe to KEPS at
http://www.amsat.org/mailman/listinfo/keps
BID: ORB09148.D
TO ALL RADIO AMATEURS BT
Satellite: AO-16
Catalog number: 20439
Epoch time: 09148.49751321
Element set: 614
Inclination: 098.2771 deg
RA of node: 117.7977 deg
Eccentricity: 0.0010081
Arg of perigee: 227.2315 deg
Mean anomaly: 132.8036 deg
Mean motion: 14.31824811 rev/day
Decay rate: -.00000000 rev/day^2
Epoch rev: 1033
Checksum: 262
Satellite: LO-19
Catalog number: 20442
Epoch time: 09147.85901474
Element set: 0535
Inclination: 098.2401 deg
RA of node: 124.5297 deg
Eccentricity: 0.0011201
Arg of perigee: 224.4779 deg
Mean anomaly: 135.5512 deg
Mean motion: 14.32060984 rev/day
Decay rate: 7.3e-07 rev/day^2
Epoch rev: 01040
Checksum: 273
Satellite: AO-27
Catalog number: 22825
Epoch time: 09147.84386774
Element set: 252
Inclination: 098.4356 deg
RA of node: 101.9100 deg
Eccentricity: 0.0007831
Arg of perigee: 330.1207 deg
Mean anomaly: 029.9534 deg
Mean motion: 14.29265704 rev/day
Decay rate: -7.7e-07 rev/day^2
Epoch rev: 81700
Checksum: 301
Satellite: IO-26
Catalog number: 22826
Epoch time: 09148.74756913
Element set: 979
Inclination: 098.4286 deg
RA of node: 103.5414 deg
Eccentricity: 0.0008516
Arg of perigee: 323.3601 deg
Mean anomaly: 036.6994 deg
Mean motion: 14.29517667 rev/day
Decay rate: -3.2e-07 rev/day^2
Epoch rev: 81723
Checksum: 333
Satellite: GO-32
Catalog number: 25397
Epoch time: 09147.89468389
Element set: 0905
Inclination: 098.3270 deg
RA of node: 171.3216 deg
Eccentricity: 0.0000673
Arg of perigee: 008.8446 deg
Mean anomaly: 351.2753 deg
Mean motion: 14.23159072 rev/day
Decay rate: -2.0e-08 rev/day^2
Epoch rev: 56524
Checksum: 314
Satellite: NO-44
Catalog number: 26931
Epoch time: 09147.85534379
Element set: 0180
Inclination: 067.0499 deg
RA of node: 116.7234 deg
Eccentricity: 0.0005586
Arg of perigee: 269.9025 deg
Mean anomaly: 090.1457 deg
Mean motion: 14.29556651 rev/day
Decay rate: -1.13e-06 rev/day^2
Epoch rev: 39967
Checksum: 339
Satellite: SO-50
Catalog number: 27607
Epoch time: 09147.59478743
Element set: 0896
Inclination: 064.5585 deg
RA of node: 087.6310 deg
Eccentricity: 0.0069493
Arg of perigee: 210.4468 deg
Mean anomaly: 149.2594 deg
Mean motion: 14.71437992 rev/day
Decay rate: -3.5e-07 rev/day^2
Epoch rev: 34564
Checksum: 355
Satellite: CO-55
Catalog number: 27844
Epoch time: 09148.55334815
Element set: 588
Inclination: 098.7120 deg
RA of node: 157.9963 deg
Eccentricity: 0.0009331
Arg of perigee: 196.2101 deg
Mean anomaly: 163.8792 deg
Mean motion: 14.20639502 rev/day
Decay rate: 6.2e-07 rev/day^2
Epoch rev: 30647
Checksum: 322
Satellite: CO-57
Catalog number: 27848
Epoch time: 09148.59858223
Element set: 535
Inclination: 098.7147 deg
RA of node: 157.1029 deg
Eccentricity: 0.0009057
Arg of perigee: 201.0379 deg
Mean anomaly: 159.0421 deg
Mean motion: 14.20441144 rev/day
Decay rate: 3.7e-07 rev/day^2
Epoch rev: 30644
Checksum: 307
Satellite: AO-51
Catalog number: 28375
Epoch time: 09147.54490995
Element set: 0400
Inclination: 098.0524 deg
RA of node: 158.3527 deg
Eccentricity: 0.0083120
Arg of perigee: 187.3150 deg
Mean anomaly: 172.6833 deg
Mean motion: 14.40642876 rev/day
Decay rate: 1.4e-07 rev/day^2
Epoch rev: 25798
Checksum: 318
Satellite: CO-56
Catalog number: 28941
Epoch time: 09148.62841827
Element set: 113
Inclination: 098.1360 deg
RA of node: 319.4251 deg
Eccentricity: 0.0091637
Arg of perigee: 205.8565 deg
Mean anomaly: 153.8104 deg
Mean motion: 15.81975844 rev/day
Decay rate: 4.8844e-04 rev/day^2
Epoch rev: 18415
Checksum: 338
Satellite: GENESAT1
Catalog number: 29655
Epoch time: 09148.79088201
Element set: 719
Inclination: 040.0269 deg
RA of node: 304.8202 deg
Eccentricity: 0.0002789
Arg of perigee: 310.6438 deg
Mean anomaly: 049.4135 deg
Mean motion: 15.65247260 rev/day
Decay rate: 9.702e-05 rev/day^2
Epoch rev: 13943
Checksum: 303
Satellite: CP3
Catalog number: 31129
Epoch time: 09148.74104410
Element set: 957
Inclination: 097.9902 deg
RA of node: 202.7471 deg
Eccentricity: 0.0102521
Arg of perigee: 346.1342 deg
Mean anomaly: 013.7044 deg
Mean motion: 14.52133427 rev/day
Decay rate: 1.50e-06 rev/day^2
Epoch rev: 11206
Checksum: 252
Satellite: CO-65
Catalog number: 32785
Epoch time: 09147.25493757
Element set: 0384
Inclination: 097.9460 deg
RA of node: 211.3929 deg
Eccentricity: 0.0016211
Arg of perigee: 099.4189 deg
Mean anomaly: 260.8857 deg
Mean motion: 14.81483071 rev/day
Decay rate: -9.5e-07 rev/day^2
Epoch rev: 05834
Checksum: 346
Satellite: KKS-1
Catalog number: 33493
Epoch time: 09148.83952210
Element set: 422
Inclination: 098.0557 deg
RA of node: 260.9659 deg
Eccentricity: 0.0019152
Arg of perigee: 307.0811 deg
Mean anomaly: 052.8652 deg
Mean motion: 14.80673217 rev/day
Decay rate: 2.45e-06 rev/day^2
Epoch rev: 1860
Checksum: 295
Satellite: SOHLA-1
Catalog number: 33496
Epoch time: 09148.77553212
Element set: 383
Inclination: 098.0367 deg
RA of node: 258.3877 deg
Eccentricity: 0.0006683
Arg of perigee: 356.5561 deg
Mean anomaly: 003.5601 deg
Mean motion: 14.69434427 rev/day
Decay rate: 1.0e-08 rev/day^2
Epoch rev: 1842
Checksum: 308
/EX
SB KEPS @ AMSAT $ORB09148.W
Orbital Elements 09148.WEATHER
HR AMSAT ORBITAL ELEMENTS FOR WEATHER SATELLITES
FROM WA5QGD FORT WORTH,TX May 28, 2009
Send Subscribe/unsubscribe to KEPS at
http://www.amsat.org/mailman/listinfo/keps
BID: ORB09148.W
TO ALL RADIO AMATEURS BT
Satellite: NOAA-10
Catalog number: 16969
Epoch time: 09147.61846828
Element set: 0628
Inclination: 098.6913 deg
RA of node: 174.3771 deg
Eccentricity: 0.0011402
Arg of perigee: 257.2651 deg
Mean anomaly: 102.7272 deg
Mean motion: 14.27387012 rev/day
Decay rate: -3.0e-07 rev/day^2
Epoch rev: 18057
Checksum: 306
Satellite: NOAA-11
Catalog number: 19531
Epoch time: 09147.77040448
Element set: 0639
Inclination: 098.7848 deg
RA of node: 238.0380 deg
Eccentricity: 0.0011819
Arg of perigee: 163.1883 deg
Mean anomaly: 196.9677 deg
Mean motion: 14.14895622 rev/day
Decay rate: -1.51e-06 rev/day^2
Epoch rev: 06663
Checksum: 338
Satellite: NOAA-12
Catalog number: 21263
Epoch time: 09147.96380335
Element set: 0150
Inclination: 098.7703 deg
RA of node: 156.0161 deg
Eccentricity: 0.0011912
Arg of perigee: 200.7946 deg
Mean anomaly: 159.2750 deg
Mean motion: 14.25580181 rev/day
Decay rate: 3.2e-07 rev/day^2
Epoch rev: 93751
Checksum: 282
Satellite: MET-3/5
Catalog number: 21655
Epoch time: 09147.94144545
Element set: 0624
Inclination: 082.5510 deg
RA of node: 220.7927 deg
Eccentricity: 0.0012304
Arg of perigee: 229.7214 deg
Mean anomaly: 130.2834 deg
Mean motion: 13.17018827 rev/day
Decay rate: 5.1e-07 rev/day^2
Epoch rev: 85496
Checksum: 291
Satellite: MET-2/21
Catalog number: 22782
Epoch time: 09147.71434408
Element set: 0469
Inclination: 082.5484 deg
RA of node: 198.2460 deg
Eccentricity: 0.0023612
Arg of perigee: 047.2233 deg
Mean anomaly: 313.0907 deg
Mean motion: 13.83636032 rev/day
Decay rate: 9.7e-07 rev/day^2
Epoch rev: 79477
Checksum: 312
Satellite: OKEAN-4
Catalog number: 23317
Epoch time: 09148.73119311
Element set: 920
Inclination: 082.5391 deg
RA of node: 352.6461 deg
Eccentricity: 0.0023883
Arg of perigee: 069.8335 deg
Mean anomaly: 290.5447 deg
Mean motion: 14.82698488 rev/day
Decay rate: 5.9e-07 rev/day^2
Epoch rev: 78948
Checksum: 342
Satellite: NOAA-14
Catalog number: 23455
Epoch time: 09147.92970830
Element set: 0633
Inclination: 098.9099 deg
RA of node: 225.6788 deg
Eccentricity: 0.0008610
Arg of perigee: 246.0397 deg
Mean anomaly: 113.9881 deg
Mean motion: 14.13760667 rev/day
Decay rate: -2.79e-06 rev/day^2
Epoch rev: 74306
Checksum: 344
Satellite: NOAA-15
Catalog number: 25338
Epoch time: 09147.82761838
Element set: 0941
Inclination: 098.5832 deg
RA of node: 137.4832 deg
Eccentricity: 0.0011623
Arg of perigee: 115.1659 deg
Mean anomaly: 245.0718 deg
Mean motion: 14.24761337 rev/day
Decay rate: -6.5e-07 rev/day^2
Epoch rev: 57387
Checksum: 327
